Andrews, NC

10:18 AM EDT on March 28, 2017 (GMT -0400)
Andrews

Weather History for KRHP - February, 2014

Change the Weather History Date:

Tuesday, February 11, 2014

  Actual Average (KMMI) Record (KMMI)
Temperature  
Mean Temperature 34 °F -  
Max Temperature 38 °F 49 °F 64 °F (2017)
Min Temperature 29 °F 24 °F 24 °F (2015)
Degree Days  
Heating Degree Days 32    
Moisture  
Dew Point 32 °F    
Average Humidity 94    
Maximum Humidity 99    
Minimum Humidity 84    
Precipitation  
Precipitation 0.00 in - - ()
Sea Level Pressure  
Sea Level Pressure 30.17 in    
Wind  
Wind Speed 1 mph (WSW)    
Max Wind Speed 6 mph    
Max Gust Speed -    
Visibility 8 miles    
Events Rain , Snow    
Averages and records for this station are not official NWS values.
T = Trace of Precipitation, MM = Missing Value Source: NWS Daily Summary

Daily Weather History Graph

Daily Weather History Graph

Search for Another Location

Airport or City:

Trip Planner

Search our weather history database for the weather conditions in past years. The results will help you decide how hot, cold, wet, or windy it might be!

Date:

Astronomy

Feb. 11, 2014 Rise Set
Actual Time 7:25 AM EST 6:14 PM EST
Civil Twilight 6:59 AM EST 6:40 PM EST
Nautical Twilight 6:29 AM EST 7:10 PM EST
Astronomical Twilight 6:00 AM EST 7:39 PM EST
Moon 3:36 PM EST (2/11) 4:59 AM EST (2/11)
Length of Visible Light 11h 40m
Length of Day
10h 48m
Waxing Gibbous, 90% of the Moon is Illuminated
Feb 11
Waxing Gibbous
Feb 14
Full
Feb 22
Last Quarter
Mar 1
New
Mar 8
First Quarter

Hourly Weather History & Observations

Time (EST) Temp. Windchill Dew Point Humidity Pressure Visibility Wind Dir Wind Speed Gust Speed Precip Events Conditions
12:15 AM 33.8 °F - 32.4 °F 94% 30.14 in 10.0 mi Calm Calm - N/A   Overcast
12:35 AM 34.0 °F 31.0 °F 32.4 °F 94% 30.13 in 10.0 mi WSW 3.5 mph - N/A   Overcast
12:55 AM 33.8 °F - 32.2 °F 94% 30.13 in 10.0 mi Calm Calm - N/A   Overcast
1:15 AM 33.8 °F - 32.2 °F 94% 30.13 in 10.0 mi Calm Calm - N/A   Overcast
1:35 AM 33.8 °F - 32.7 °F 96% 30.13 in 7.0 mi Calm Calm - N/A   Overcast
1:55 AM 33.8 °F - 32.4 °F 94% 30.13 in 10.0 mi Calm Calm - N/A   Overcast
2:15 AM 33.8 °F - 32.5 °F 95% 30.13 in 7.0 mi Calm Calm - N/A   Overcast
2:35 AM 33.8 °F 30.8 °F 32.5 °F 95% 30.13 in 7.0 mi SSW 3.5 mph - N/A   Overcast
2:55 AM 33.8 °F 30.8 °F 32.2 °F 94% 30.13 in 10.0 mi WSW 3.5 mph - N/A   Overcast
3:15 AM 33.8 °F 29.6 °F 32.2 °F 94% 30.13 in 10.0 mi WSW 4.6 mph - N/A   Overcast
3:35 AM 33.6 °F - 32.2 °F 94% 30.12 in 10.0 mi Calm Calm - N/A   Overcast
3:55 AM 33.8 °F - 32.4 °F 94% 30.12 in 7.0 mi Calm Calm - N/A   Overcast
4:15 AM 33.4 °F 30.4 °F 32.2 °F 95% 30.13 in 7.0 mi SW 3.5 mph - N/A   Overcast
4:35 AM 33.3 °F 28.9 °F 32.2 °F 96% 30.13 in 7.0 mi SW 4.6 mph - N/A   Overcast
4:55 AM 33.3 °F 30.2 °F 32.0 °F 95% 30.14 in 7.0 mi WSW 3.5 mph - N/A   Overcast
5:15 AM 33.3 °F - 32.0 °F 95% 30.13 in 7.0 mi Calm Calm - N/A   Overcast
5:35 AM 33.3 °F - 32.0 °F 95% 30.13 in 10.0 mi Calm Calm - N/A   Overcast
5:55 AM 33.4 °F 30.4 °F 32.2 °F 95% 30.15 in 7.0 mi WSW 3.5 mph - N/A   Overcast
6:15 AM 32.9 °F - 32.0 °F 96% 30.15 in 7.0 mi Calm Calm - N/A   Overcast
6:35 AM 33.1 °F - 32.0 °F 96% 30.15 in 5.0 mi Calm Calm - N/A Rain Light Rain
6:55 AM 32.7 °F - 32.0 °F 97% 30.14 in 5.0 mi Calm Calm - N/A Snow Light Snow
7:15 AM 32.9 °F - 32.0 °F 96% 30.14 in 7.0 mi Calm Calm - N/A   Overcast
7:35 AM 32.9 °F - 32.0 °F 96% 30.15 in 7.0 mi Calm Calm - N/A   Overcast
7:55 AM 33.1 °F 30.0 °F 32.4 °F 97% 30.17 in 4.0 mi WSW 3.5 mph - N/A Rain Light Rain
8:15 AM 32.9 °F 29.8 °F 32.0 °F 96% 30.17 in 4.0 mi SW 3.5 mph - N/A Rain Light Rain
8:35 AM 32.2 °F 28.9 °F 32.0 °F 99% 30.18 in 1.8 mi WSW 3.5 mph - N/A Snow Light Snow
8:55 AM 32.5 °F 29.3 °F 32.0 °F 98% 30.19 in 2.5 mi WSW 3.5 mph - N/A Snow Light Snow
9:15 AM 32.4 °F 27.9 °F 32.0 °F 99% 30.19 in 2.0 mi SW 4.6 mph - N/A Snow Light Snow
9:35 AM 32.4 °F 29.1 °F 32.0 °F 99% 30.20 in 4.0 mi WSW 3.5 mph - N/A   Overcast
9:55 AM 33.1 °F 30.0 °F 32.0 °F 96% 30.20 in 3.0 mi West 3.5 mph - N/A Rain Light Rain
10:15 AM 33.1 °F 27.7 °F 32.0 °F 96% 30.20 in 5.0 mi WSW 5.8 mph - N/A   Overcast
10:35 AM 33.1 °F 28.7 °F 32.0 °F 96% 30.21 in 7.0 mi West 4.6 mph - N/A   Overcast
10:55 AM 33.1 °F 30.0 °F 32.0 °F 96% 30.21 in 7.0 mi WSW 3.5 mph - N/A   Overcast
11:15 AM 33.8 °F - 32.0 °F 93% 30.22 in 7.0 mi Calm Calm - N/A   Overcast
11:35 AM 33.8 °F 29.6 °F 32.0 °F 93% 30.22 in 7.0 mi West 4.6 mph - N/A   Overcast
11:55 AM 34.3 °F 29.2 °F 32.7 °F 94% 30.22 in 7.0 mi West 5.8 mph - N/A   Overcast
12:15 PM 34.7 °F 31.8 °F 32.7 °F 92% 30.21 in 7.0 mi West 3.5 mph - N/A   Overcast
12:35 PM 34.9 °F - 32.7 °F 92% 30.21 in 7.0 mi Calm Calm - N/A   Overcast
12:55 PM 35.2 °F 31.2 °F 33.1 °F 92% 30.20 in 10.0 mi West 4.6 mph - N/A   Overcast
1:15 PM 35.6 °F 32.8 °F 32.9 °F 90% 30.19 in 10.0 mi WSW 3.5 mph - N/A   Overcast
1:35 PM 35.6 °F - 32.5 °F 89% 30.19 in 10.0 mi Calm Calm - N/A   Overcast
1:55 PM 36.0 °F - 33.1 °F 89% 30.19 in 10.0 mi Calm Calm - N/A   Overcast
2:15 PM 36.5 °F - 33.1 °F 87% 30.19 in 10.0 mi Calm Calm - N/A   Overcast
2:35 PM 36.3 °F - 33.1 °F 88% 30.19 in 10.0 mi Calm Calm - N/A   Overcast
3:15 PM 37.0 °F - 34.0 °F 89% 30.18 in 5.0 mi Calm Calm - N/A   Overcast
3:35 PM 37.4 °F - 34.5 °F 89% 30.17 in 7.0 mi Calm Calm - N/A   Overcast
3:55 PM 37.4 °F - 34.0 °F 87% 30.17 in 10.0 mi Calm Calm - N/A   Overcast
4:15 PM 38.3 °F - 34.2 °F 85% 30.18 in 10.0 mi Calm Calm - N/A   Overcast
4:35 PM 38.3 °F - 34.2 °F 85% 30.18 in 10.0 mi Calm Calm - N/A   Overcast
4:55 PM 38.3 °F - 34.3 °F 86% 30.18 in 10.0 mi Calm Calm - N/A   Overcast
5:15 PM 38.3 °F - 33.8 °F 84% 30.18 in 10.0 mi Calm Calm - N/A   Overcast
5:35 PM 38.3 °F - 34.3 °F 86% 30.19 in 10.0 mi Calm Calm - N/A   Overcast
5:55 PM 38.3 °F - 34.5 °F 86% 30.19 in 10.0 mi Calm Calm - N/A   Overcast
6:35 PM 37.2 °F 34.7 °F 34.9 °F 91% 30.20 in 10.0 mi West 3.5 mph - N/A   Overcast
6:55 PM 35.6 °F - 33.6 °F 92% 30.20 in 10.0 mi Calm Calm - N/A   Mostly Cloudy
7:15 PM 34.7 °F - 32.4 °F 91% 30.21 in 10.0 mi Calm Calm - N/A   Overcast
7:35 PM 33.4 °F 30.4 °F 31.6 °F 93% 30.20 in 10.0 mi North 3.5 mph - N/A   Scattered Clouds
7:55 PM 32.0 °F - 30.7 °F 95% 30.21 in 10.0 mi Calm Calm - N/A   Clear
8:55 PM 30.9 °F - 29.8 °F 96% 30.21 in 10.0 mi Calm Calm - N/A   Clear
9:15 PM 31.1 °F - 29.5 °F 94% 30.21 in 10.0 mi Calm Calm - N/A   Clear
9:35 PM 29.5 °F - 28.9 °F 98% 30.20 in 7.0 mi Calm Calm - N/A   Clear
9:55 PM 30.2 °F - 29.7 °F 98% 30.20 in 7.0 mi Calm Calm - N/A   Clear
10:15 PM 30.2 °F - 29.8 °F 99% 30.20 in 7.0 mi Calm Calm - N/A   Clear
10:35 PM 29.7 °F - 29.3 °F 99% 30.20 in 7.0 mi Calm Calm - N/A   Clear
10:55 PM 30.0 °F - 29.5 °F 98% 30.20 in 7.0 mi Calm Calm - N/A   Clear
11:15 PM 29.8 °F - 29.3 °F 98% 30.21 in 5.0 mi Calm Calm - N/A   Clear
11:55 PM 30.4 °F - 29.7 °F 97% 30.20 in 7.0 mi Calm Calm - N/A   Clear